Time,TemperatureF,DewpointF,PressureIn,WindDirection,WindDirectionDegrees,WindSpeedMPH,WindSpeedGustMPH,Humidity,HourlyPrecipIn,Conditions,Clouds,dailyrainin,SolarRadiationWatts/m^2,SoftwareType,DateUTC
2013-01-05 00:00:00,48.4,47.0,30.39,South,173,9.0,13.0,95,0.00,RA,,0.00,0.0,WeatherDisplay:10.37,2013-01-05 00:00:00,
2013-01-05 00:10:00,48.7,47.4,30.39,SSE,168,10.0,14.0,95,0.00,CLR,,0.00,0.0,WeatherDisplay:10.37,2013-01-05 00:10:00,
2013-01-05 00:15:00,48.9,47.2,30.38,SSE,166,9.0,14.0,94,0.00,CLR,,0.00,0.0,WeatherDisplay:10.37,2013-01-05 00:15:00,
2013-01-05 00:20:00,49.0,47.3,30.38,SSE,166,9.0,14.0,94,0.00,CLR,,0.00,0.0,WeatherDisplay:10.37,2013-01-05 00:20:00,
2013-01-05 00:30:00,49.0,47.3,30.38,SSE,164,8.0,15.0,94,0.00,CLR,,0.00,0.0,WeatherDisplay:10.37,2013-01-05 00:30:00,
2013-01-05 00:40:00,49.0,47.3,30.37,SSE,155,9.0,15.0,94,0.00,CLR,,0.00,0.0,WeatherDisplay:10.37,2013-01-05 00:40:00,
2013-01-05 00:50:00,48.9,47.3,30.38,SSE,157,7.0,12.0,94,0.00,CLR,,0.00,0.0,WeatherDisplay:10.37,2013-01-05 00:50:00,
2013-01-05 01:00:00,48.9,47.2,30.38,SSE,163,8.0,13.0,94,0.00,CLR,,0.00,0.0,WeatherDisplay:10.37,2013-01-05 01:00:00,
2013-01-05 01:10:00,48.8,47.2,30.38,SSE,166,10.0,15.0,94,0.00,CLR,,0.00,0.0,WeatherDisplay:10.37,2013-01-05 01:10:00,
2013-01-05 01:20:00,48.6,46.7,30.37,SSE,163,9.0,15.0,93,0.00,CLR,,0.00,0.0,WeatherDisplay:10.37,2013-01-05 01:20:00,
2013-01-05 01:30:00,48.4,46.5,30.37,SSE,162,7.0,12.0,93,0.00,CLR,,0.00,0.0,WeatherDisplay:10.37,2013-01-05 01:30:00,
2013-01-05 01:40:00,48.2,46.3,30.37,SSE,159,9.0,14.0,93,0.00,CLR,,0.00,0.0,WeatherDisplay:10.37,2013-01-05 01:40:00,
2013-01-05 01:45:00,48.1,46.2,30.37,SSE,160,9.0,14.0,93,0.00,CLR,,0.00,0.0,WeatherDisplay:10.37,2013-01-05 01:45:00,
2013-01-05 01:50:00,48.1,46.2,30.37,SSE,156,7.0,13.0,93,0.00,CLR,,0.00,0.0,WeatherDisplay:10.37,2013-01-05 01:50:00,
2013-01-05 02:00:00,48.0,46.1,30.37,SE,132,2.0,6.0,93,0.00,CLR,,0.00,0.0,WeatherDisplay:10.37,2013-01-05 02:00:00,
2013-01-05 02:10:00,47.8,45.9,30.37,SE,139,6.0,12.0,93,0.00,CLR,,0.00,0.0,WeatherDisplay:10.37,2013-01-05 02:10:00,
2013-01-05 02:15:00,47.7,45.8,30.37,SSE,151,8.0,12.0,93,0.00,CLR,,0.00,0.0,WeatherDisplay:10.37,2013-01-05 02:15:00,
2013-01-05 02:25:00,47.8,45.9,30.37,SSE,156,7.0,12.0,93,0.00,CLR,,0.00,0.0,WeatherDisplay:10.37,2013-01-05 02:25:00,
2013-01-05 02:30:00,47.9,46.0,30.37,SSE,149,6.0,12.0,93,0.00,CLR,,0.00,0.0,WeatherDisplay:10.37,2013-01-05 02:30:00,
2013-01-05 02:40:00,48.1,46.2,30.37,ESE,109,3.0,10.0,93,0.00,CLR,,0.00,0.0,WeatherDisplay:10.37,2013-01-05 02:40:00,
2013-01-05 02:45:00,48.1,46.2,30.37,East,94,1.0,7.0,93,0.00,CLR,,0.00,0.0,WeatherDisplay:10.37,2013-01-05 02:45:00,
2013-01-05 02:50:00,48.0,46.1,30.37,East,94,2.0,5.0,93,0.00,CLR,,0.00,0.0,WeatherDisplay:10.37,2013-01-05 02:50:00,
2013-01-05 02:55:00,47.9,46.0,30.37,East,94,0.0,4.0,93,0.00,CLR,,0.00,0.0,WeatherDisplay:10.37,2013-01-05 02:55:00,
2013-01-05 03:00:00,47.8,45.9,30.37,East,94,2.0,5.0,93,0.00,CLR,,0.00,0.0,WeatherDisplay:10.37,2013-01-05 03:00:00,
2013-01-05 03:10:00,47.5,45.3,30.37,East,94,3.0,7.0,92,0.00,CLR,,0.00,0.0,WeatherDisplay:10.37,2013-01-05 03:10:00,
2013-01-05 03:15:00,47.3,45.4,30.36,East,94,3.0,7.0,93,0.00,CLR,,0.00,0.0,WeatherDisplay:10.37,2013-01-05 03:15:00,
2013-01-05 03:20:00,47.3,45.4,30.36,East,94,3.0,7.0,93,0.00,CLR,,0.00,0.0,WeatherDisplay:10.37,2013-01-05 03:20:00,
2013-01-05 03:30:00,47.3,45.4,30.36,East,95,3.0,6.0,93,0.00,CLR,,0.00,0.0,WeatherDisplay:10.37,2013-01-05 03:30:00,
2013-01-05 03:40:00,47.4,45.8,30.35,ESE,118,6.0,12.0,94,0.00,CLR,,0.00,0.0,WeatherDisplay:10.37,2013-01-05 03:40:00,
2013-01-05 03:45:00,47.6,45.7,30.35,SE,143,7.0,10.0,93,0.00,CLR,,0.00,0.0,WeatherDisplay:10.37,2013-01-05 03:45:00,
2013-01-05 03:50:00,47.8,45.9,30.35,SSE,150,8.0,14.0,93,0.00,CLR,,0.00,0.0,WeatherDisplay:10.37,2013-01-05 03:50:00,
2013-01-05 03:55:00,48.0,46.1,30.35,SSE,151,6.0,10.0,93,0.00,CLR,,0.00,0.0,WeatherDisplay:10.37,2013-01-05 03:55:00,
2013-01-05 04:00:00,48.2,46.3,30.35,SE,142,6.0,10.0,93,0.00,CLR,,0.00,0.0,WeatherDisplay:10.37,2013-01-05 04:00:00,
2013-01-05 04:10:00,48.2,46.0,30.34,SE,130,6.0,12.0,92,0.00,CLR,,0.00,0.0,WeatherDisplay:10.37,2013-01-05 04:10:00,
2013-01-05 04:15:00,48.2,46.0,30.34,SE,124,6.0,9.0,92,0.00,CLR,,0.00,0.0,WeatherDisplay:10.37,2013-01-05 04:15:00,
2013-01-05 04:20:00,48.1,45.9,30.34,SE,125,3.0,6.0,92,0.00,CLR,,0.00,0.0,WeatherDisplay:10.37,2013-01-05 04:20:00,
2013-01-05 04:25:00,48.0,45.8,30.34,ESE,122,5.0,7.0,92,0.00,CLR,,0.00,0.0,WeatherDisplay:10.37,2013-01-05 04:25:00,
2013-01-05 04:30:00,48.0,45.8,30.34,SE,127,5.0,9.0,92,0.00,CLR,,0.00,0.0,WeatherDisplay:10.37,2013-01-05 04:30:00,
2013-01-05 04:40:00,48.0,45.8,30.33,SE,146,6.0,13.0,92,0.00,CLR,,0.00,0.0,WeatherDisplay:10.37,2013-01-05 04:40:00,
2013-01-05 04:45:00,48.0,45.8,30.33,SE,136,5.0,12.0,92,0.00,CLR,,0.00,0.0,WeatherDisplay:10.37,2013-01-05 04:45:00,
2013-01-05 04:50:00,48.1,45.9,30.33,SE,141,6.0,12.0,92,0.00,CLR,,0.00,0.0,WeatherDisplay:10.37,2013-01-05 04:50:00,
2013-01-05 05:00:00,48.3,46.1,30.33,SE,140,7.0,12.0,92,0.00,CLR,,0.00,0.0,WeatherDisplay:10.37,2013-01-05 05:00:00,
2013-01-05 05:05:00,48.4,46.2,30.33,SE,138,5.0,8.0,92,0.00,CLR,,0.00,0.0,WeatherDisplay:10.37,2013-01-05 05:05:00,
2013-01-05 05:10:00,48.5,46.3,30.33,SE,139,6.0,12.0,92,0.00,CLR,,0.00,0.0,WeatherDisplay:10.37,2013-01-05 05:10:00,
2013-01-05 05:15:00,48.5,46.0,30.33,SE,139,6.0,12.0,91,0.00,CLR,,0.00,0.0,WeatherDisplay:10.37,2013-01-05 05:15:00,
2013-01-05 05:20:00,48.5,46.0,30.33,SE,144,6.0,14.0,91,0.00,CLR,,0.00,0.0,WeatherDisplay:10.37,2013-01-05 05:20:00,
2013-01-05 05:25:00,48.6,46.1,30.32,SE,145,7.0,12.0,91,0.00,CLR,,0.00,0.0,WeatherDisplay:10.37,2013-01-05 05:25:00,
2013-01-05 05:30:00,48.6,46.1,30.32,SE,142,6.0,8.0,91,0.00,CLR,,0.00,0.0,WeatherDisplay:10.37,2013-01-05 05:30:00,
2013-01-05 05:40:00,48.7,46.2,30.32,SSE,149,7.0,12.0,91,0.00,CLR,,0.00,0.0,WeatherDisplay:10.37,2013-01-05 05:40:00,
2013-01-05 05:45:00,48.8,46.3,30.32,SSE,149,6.0,13.0,91,0.00,CLR,,0.00,0.0,WeatherDisplay:10.37,2013-01-05 05:45:00,
2013-01-05 05:50:00,48.9,46.4,30.32,SSE,147,8.0,14.0,91,0.00,CLR,,0.00,0.0,WeatherDisplay:10.37,2013-01-05 05:50:00,
2013-01-05 05:55:00,49.0,46.5,30.32,SE,143,8.0,12.0,91,0.00,CLR,,0.00,0.0,WeatherDisplay:10.37,2013-01-05 05:55:00,
2013-01-05 06:05:00,49.0,46.5,30.31,SE,144,6.0,12.0,91,0.00,CLR,,0.00,0.0,WeatherDisplay:10.37,2013-01-05 06:05:00,
2013-01-05 06:10:00,49.1,46.6,30.31,SSE,153,8.0,12.0,91,0.00,CLR,,0.00,0.0,WeatherDisplay:10.37,2013-01-05 06:10:00,
2013-01-05 06:15:00,49.2,46.7,30.31,SE,145,7.0,12.0,91,0.00,CLR,,0.00,0.0,WeatherDisplay:10.37,2013-01-05 06:15:00,
2013-01-05 06:20:00,49.3,46.8,30.30,SSE,150,8.0,12.0,91,0.00,CLR,,0.00,0.0,WeatherDisplay:10.37,2013-01-05 06:20:00,
2013-01-05 06:25:00,49.4,46.9,30.31,SSE,150,6.0,14.0,91,0.00,CLR,,0.00,0.0,WeatherDisplay:10.37,2013-01-05 06:25:00,
2013-01-05 06:30:00,49.4,46.9,30.31,SSE,153,9.0,17.0,91,0.00,CLR,,0.00,0.0,WeatherDisplay:10.37,2013-01-05 06:30:00,
2013-01-05 06:40:00,49.6,47.1,30.31,SSE,156,8.0,13.0,91,0.00,CLR,,0.00,0.0,WeatherDisplay:10.37,2013-01-05 06:40:00,
2013-01-05 06:45:00,49.6,47.1,30.31,SSE,154,7.0,12.0,91,0.00,CLR,,0.00,0.0,WeatherDisplay:10.37,2013-01-05 06:45:00,
2013-01-05 06:55:00,49.7,47.2,30.30,SSE,152,9.0,14.0,91,0.00,CLR,,0.00,0.0,WeatherDisplay:10.37,2013-01-05 06:55:00,
2013-01-05 07:00:00,49.7,47.2,30.30,SSE,155,7.0,13.0,91,0.00,CLR,,0.00,0.0,WeatherDisplay:10.37,2013-01-05 07:00:00,
2013-01-05 07:10:00,49.8,47.3,30.30,SSE,152,8.0,13.0,91,0.00,CLR,,0.00,0.0,WeatherDisplay:10.37,2013-01-05 07:10:00,
2013-01-05 07:20:00,49.8,47.3,30.30,SSE,166,8.0,14.0,91,0.00,CLR,,0.00,0.0,WeatherDisplay:10.37,2013-01-05 07:20:00,
2013-01-05 07:30:00,49.8,47.6,30.30,SSE,156,9.0,14.0,92,0.00,CLR,,0.00,0.0,WeatherDisplay:10.37,2013-01-05 07:30:00,
2013-01-05 07:40:00,49.8,47.6,30.30,SSE,158,10.0,17.0,92,0.00,CLR,,0.00,0.0,WeatherDisplay:10.37,2013-01-05 07:40:00,
2013-01-05 07:45:00,49.8,47.6,30.30,SSE,156,10.0,17.0,92,0.00,CLR,,0.00,0.0,WeatherDisplay:10.37,2013-01-05 07:45:00,
2013-01-05 07:50:00,49.8,47.6,30.29,SSE,157,9.0,21.0,92,0.00,CLR,,0.00,0.0,WeatherDisplay:10.37,2013-01-05 07:50:00,
2013-01-05 08:00:00,49.8,47.6,30.30,SSE,155,7.0,15.0,92,0.00,CLR,,0.00,0.0,WeatherDisplay:10.37,2013-01-05 08:00:00,
2013-01-05 08:10:00,50.0,47.8,30.30,SSE,157,8.0,14.0,92,0.00,CLR,,0.00,0.0,WeatherDisplay:10.37,2013-01-05 08:10:00,
2013-01-05 08:15:00,50.0,47.8,30.30,SSE,155,7.0,14.0,92,0.00,CLR,,0.00,0.0,WeatherDisplay:10.37,2013-01-05 08:15:00,
2013-01-05 08:20:00,50.0,47.8,30.30,SSE,156,10.0,17.0,92,0.00,OVC,,0.00,0.0,WeatherDisplay:10.37,2013-01-05 08:20:00,
2013-01-05 08:30:00,50.1,47.9,30.30,SSE,155,8.0,14.0,92,0.00,OVC,,0.00,0.0,WeatherDisplay:10.37,2013-01-05 08:30:00,
2013-01-05 08:40:00,50.2,48.0,30.30,SSE,154,10.0,15.0,92,0.00,OVC,,0.00,0.0,WeatherDisplay:10.37,2013-01-05 08:40:00,
2013-01-05 08:45:00,50.1,47.9,30.30,SSE,157,9.0,14.0,92,0.00,OVC,,0.00,0.0,WeatherDisplay:10.37,2013-01-05 08:45:00,
2013-01-05 08:55:00,50.1,47.9,30.30,SSE,155,8.0,13.0,92,0.00,OVC,,0.00,0.0,WeatherDisplay:10.37,2013-01-05 08:55:00,
2013-01-05 09:00:00,50.0,47.8,30.30,SSE,154,8.0,14.0,92,0.00,OVC,,0.00,0.0,WeatherDisplay:10.37,2013-01-05 09:00:00,
2013-01-05 09:10:00,49.9,48.0,30.30,SSE,158,8.0,15.0,93,0.00,BKN,,0.00,9.0,WeatherDisplay:10.37,2013-01-05 09:10:00,
2013-01-05 09:20:00,49.9,48.0,30.29,SSE,152,8.0,12.0,93,0.00,SCT,,0.00,19.0,WeatherDisplay:10.37,2013-01-05 09:20:00,
2013-01-05 09:30:00,49.9,48.0,30.29,SSE,152,6.0,14.0,93,0.00,SCT,,0.00,25.0,WeatherDisplay:10.37,2013-01-05 09:30:00,
2013-01-05 09:40:00,50.0,48.1,30.29,SSE,151,9.0,16.0,93,0.00,BKN,,0.00,25.0,WeatherDisplay:10.37,2013-01-05 09:40:00,
2013-01-05 09:50:00,50.3,48.4,30.29,SSE,151,10.0,17.0,93,0.00,BKN,,0.00,19.0,WeatherDisplay:10.37,2013-01-05 09:50:00,
2013-01-05 10:00:00,50.6,48.7,30.29,SSE,157,10.0,17.0,93,0.00,BKN,,0.00,16.0,WeatherDisplay:10.37,2013-01-05 10:00:00,
2013-01-05 10:10:00,50.8,48.6,30.29,SSE,154,10.0,15.0,92,0.00,BKN,,0.00,26.0,WeatherDisplay:10.37,2013-01-05 10:10:00,
2013-01-05 10:15:00,50.8,48.6,30.28,SSE,156,12.0,17.0,92,0.00,BKN,,0.00,35.0,WeatherDisplay:10.37,2013-01-05 10:15:00,
2013-01-05 10:20:00,50.9,48.7,30.29,SSE,157,12.0,20.0,92,0.00,BKN,,0.00,18.0,WeatherDisplay:10.37,2013-01-05 10:20:00,
2013-01-05 10:30:00,51.0,48.8,30.29,SSE,154,13.0,17.0,92,0.00,BKN,,0.00,9.0,WeatherDisplay:10.37,2013-01-05 10:30:00,
2013-01-05 10:40:00,51.1,48.9,30.29,SSE,163,12.0,20.0,92,0.00,BKN,,0.00,16.0,WeatherDisplay:10.37,2013-01-05 10:40:00,
2013-01-05 10:45:00,51.1,48.9,30.29,SSE,160,15.0,22.0,92,0.00,BKN,,0.00,7.0,WeatherDisplay:10.37,2013-01-05 10:45:00,
2013-01-05 10:50:00,51.1,48.9,30.29,SSE,158,12.0,18.0,92,0.00,BKN,,0.00,14.0,WeatherDisplay:10.37,2013-01-05 10:50:00,
2013-01-05 11:00:00,51.2,49.0,30.29,SSE,158,10.0,16.0,92,0.00,BKN,,0.00,18.0,WeatherDisplay:10.37,2013-01-05 11:00:00,
2013-01-05 11:10:00,51.4,49.2,30.28,SSE,160,10.0,16.0,92,0.00,BKN,,0.00,33.0,WeatherDisplay:10.37,2013-01-05 11:10:00,
2013-01-05 11:15:00,51.5,49.2,30.29,SSE,160,9.0,19.0,92,0.00,BKN,,0.00,32.0,WeatherDisplay:10.37,2013-01-05 11:15:00,
2013-01-05 11:20:00,51.6,49.4,30.29,SSE,157,10.0,20.0,92,0.00,BKN,,0.00,21.0,WeatherDisplay:10.37,2013-01-05 11:20:00,
2013-01-05 11:30:00,51.6,49.4,30.29,SSE,166,12.0,20.0,92,0.00,BKN,,0.00,9.0,WeatherDisplay:10.37,2013-01-05 11:30:00,
2013-01-05 11:40:00,51.8,49.2,30.28,SSE,166,10.0,18.0,91,0.00,BKN,,0.00,14.0,WeatherDisplay:10.37,2013-01-05 11:40:00,
2013-01-05 11:45:00,51.8,49.3,30.28,SSE,165,10.0,20.0,91,0.00,BKN,,0.00,14.0,WeatherDisplay:10.37,2013-01-05 11:45:00,
2013-01-05 11:50:00,51.8,49.3,30.28,SSE,167,10.0,16.0,91,0.00,BKN,,0.00,14.0,WeatherDisplay:10.37,2013-01-05 11:50:00,
2013-01-05 12:00:00,51.9,49.6,30.28,SSE,160,9.0,15.0,92,0.00,BKN,,0.00,11.0,WeatherDisplay:10.37,2013-01-05 12:00:00,
2013-01-05 12:10:00,51.9,49.4,30.28,SSE,155,8.0,15.0,91,0.00,OVC,,0.00,11.0,WeatherDisplay:10.37,2013-01-05 12:10:00,
2013-01-05 12:15:00,51.9,49.6,30.27,SSE,156,10.0,14.0,92,0.00,BKN,,0.00,14.0,WeatherDisplay:10.37,2013-01-05 12:15:00,
2013-01-05 12:20:00,51.7,49.7,30.27,SSE,152,12.0,17.0,93,0.01,RA,,0.01,9.0,WeatherDisplay:10.37,2013-01-05 12:20:00,
2013-01-05 12:30:00,51.4,49.7,30.27,SSE,159,9.0,17.0,94,0.01,RA,,0.02,7.0,WeatherDisplay:10.37,2013-01-05 12:30:00,
2013-01-05 12:40:00,51.2,49.5,30.28,SSE,159,9.0,16.0,94,0.02,RA,,0.06,7.0,WeatherDisplay:10.37,2013-01-05 12:40:00,
2013-01-05 12:45:00,51.1,49.4,30.28,SSE,164,8.0,14.0,94,0.02,RA,,0.08,9.0,WeatherDisplay:10.37,2013-01-05 12:45:00,
2013-01-05 12:50:00,51.1,49.7,30.28,SSE,165,12.0,16.0,95,0.02,RA,,0.09,21.0,WeatherDisplay:10.37,2013-01-05 12:50:00,
2013-01-05 13:00:00,51.2,49.9,30.27,South,171,10.0,18.0,95,0.01,RA,,0.11,14.0,WeatherDisplay:10.37,2013-01-05 13:00:00,
2013-01-05 13:10:00,51.2,49.8,30.27,SSE,161,10.0,16.0,95,0.02,RA,,0.13,21.0,WeatherDisplay:10.37,2013-01-05 13:10:00,
2013-01-05 13:20:00,51.2,49.8,30.28,SSE,168,9.0,14.0,95,0.01,RA,,0.14,40.0,WeatherDisplay:10.37,2013-01-05 13:20:00,
2013-01-05 13:30:00,51.3,50.2,30.27,South,170,10.0,15.0,96,0.00,RA,,0.15,19.0,WeatherDisplay:10.37,2013-01-05 13:30:00,
2013-01-05 13:40:00,51.4,50.3,30.28,South,172,10.0,16.0,96,0.01,RA,,0.16,12.0,WeatherDisplay:10.37,2013-01-05 13:40:00,
2013-01-05 13:45:00,51.5,50.4,30.28,South,176,12.0,21.0,96,0.00,RA,,0.16,11.0,WeatherDisplay:10.37,2013-01-05 13:45:00,
2013-01-05 13:50:00,51.5,50.4,30.28,South,179,13.0,23.0,96,0.00,BKN,,0.16,26.0,WeatherDisplay:10.37,2013-01-05 13:50:00,
2013-01-05 14:00:00,51.5,50.4,30.28,South,185,10.0,17.0,96,0.00,RA,,0.17,19.0,WeatherDisplay:10.37,2013-01-05 14:00:00,
2013-01-05 14:06:00,51.5,50.4,30.28,SSW,194,9.0,20.0,96,0.00,BKN,,0.17,23.0,WeatherDisplay:10.37,2013-01-05 14:06:00,
2013-01-05 14:15:00,51.5,50.4,30.31,SSW,203,13.0,23.0,96,0.01,RA,,0.17,53.0,WeatherDisplay:10.37,2013-01-05 14:15:00,
2013-01-05 14:20:00,51.4,50.3,30.29,SSW,200,10.0,20.0,96,0.00,RA,,0.17,67.0,WeatherDisplay:10.37,2013-01-05 14:20:00,
2013-01-05 14:30:00,51.5,50.4,30.31,SSW,199,10.0,19.0,96,0.00,SCT,,0.17,28.0,WeatherDisplay:10.37,2013-01-05 14:30:00,
2013-01-05 14:40:00,51.3,50.2,30.32,SSW,198,12.0,15.0,96,0.00,BKN,,0.17,14.0,WeatherDisplay:10.37,2013-01-05 14:40:00,
2013-01-05 14:45:00,51.2,50.1,30.32,SSW,205,14.0,20.0,96,0.00,BKN,,0.17,26.0,WeatherDisplay:10.37,2013-01-05 14:45:00,
2013-01-05 14:50:00,51.1,50.0,30.32,SSW,211,6.0,18.0,96,0.00,BKN,,0.17,26.0,WeatherDisplay:10.37,2013-01-05 14:50:00,
2013-01-05 15:00:00,51.2,50.1,30.33,SSW,203,9.0,18.0,96,0.00,BKN,,0.17,26.0,WeatherDisplay:10.37,2013-01-05 15:00:00,
2013-01-05 15:10:00,51.3,50.2,30.33,SSW,202,8.0,15.0,96,0.00,BKN,,0.17,26.0,WeatherDisplay:10.37,2013-01-05 15:10:00,
2013-01-05 15:15:00,51.4,50.3,30.33,SSW,203,8.0,14.0,96,0.00,BKN,,0.17,23.0,WeatherDisplay:10.37,2013-01-05 15:15:00,
2013-01-05 15:20:00,51.4,50.3,30.34,SSW,205,9.0,14.0,96,0.00,BKN,,0.17,16.0,WeatherDisplay:10.37,2013-01-05 15:20:00,
2013-01-05 15:30:00,51.2,50.1,30.35,SSW,206,8.0,15.0,96,0.00,BKN,,0.17,14.0,WeatherDisplay:10.37,2013-01-05 15:30:00,
2013-01-05 15:40:00,51.2,50.1,30.35,SSW,207,9.0,13.0,96,0.00,BKN,,0.17,7.0,WeatherDisplay:10.37,2013-01-05 15:40:00,
2013-01-05 15:45:00,51.2,50.1,30.35,SSW,208,10.0,16.0,96,0.00,OVC,,0.17,0.0,WeatherDisplay:10.37,2013-01-05 15:45:00,
2013-01-05 15:50:00,51.1,50.0,30.36,SSW,210,8.0,15.0,96,0.00,OVC,,0.17,0.0,WeatherDisplay:10.37,2013-01-05 15:50:00,
2013-01-05 16:00:00,51.1,50.0,30.36,SW,226,9.0,15.0,96,0.00,OVC,,0.17,0.0,WeatherDisplay:10.37,2013-01-05 16:00:00,
2013-01-05 16:10:00,51.2,50.4,30.37,SW,235,7.0,16.0,97,0.00,BKN,,0.17,5.0,WeatherDisplay:10.37,2013-01-05 16:10:00,
2013-01-05 16:20:00,51.3,50.2,30.36,WSW,256,9.0,15.0,96,0.00,OVC,,0.17,0.0,WeatherDisplay:10.37,2013-01-05 16:20:00,
2013-01-05 16:30:00,51.1,50.0,30.36,West,260,9.0,15.0,96,0.00,OVC,,0.17,0.0,WeatherDisplay:10.37,2013-01-05 16:30:00,
2013-01-05 16:40:00,50.5,49.1,30.37,WSW,258,8.0,13.0,95,0.00,OVC,,0.17,0.0,WeatherDisplay:10.37,2013-01-05 16:40:00,
2013-01-05 16:50:00,50.0,48.6,30.38,WSW,257,6.0,12.0,95,0.00,OVC,,0.17,0.0,WeatherDisplay:10.37,2013-01-05 16:50:00,
2013-01-05 17:00:00,49.6,48.3,30.38,WSW,257,5.0,8.0,95,0.00,CLR,,0.17,0.0,WeatherDisplay:10.37,2013-01-05 17:00:00,
2013-01-05 17:10:00,49.4,48.0,30.39,WSW,257,2.0,7.0,95,0.00,CLR,,0.17,0.0,WeatherDisplay:10.37,2013-01-05 17:10:00,
2013-01-05 17:15:00,49.3,47.9,30.40,WSW,257,3.0,6.0,95,0.00,CLR,,0.17,0.0,WeatherDisplay:10.37,2013-01-05 17:15:00,
2013-01-05 17:25:00,49.0,47.6,30.40,WSW,257,5.0,7.0,95,0.00,CLR,,0.17,0.0,WeatherDisplay:10.37,2013-01-05 17:25:00,
2013-01-05 17:30:00,48.9,47.5,30.40,WSW,247,5.0,8.0,95,0.00,CLR,,0.17,0.0,WeatherDisplay:10.37,2013-01-05 17:30:00,
2013-01-05 17:40:00,48.5,47.2,30.41,WSW,239,3.0,6.0,95,0.00,CLR,,0.17,0.0,WeatherDisplay:10.37,2013-01-05 17:40:00,
2013-01-05 17:45:00,48.4,47.0,30.41,WSW,239,5.0,7.0,95,0.00,CLR,,0.17,0.0,WeatherDisplay:10.37,2013-01-05 17:45:00,
2013-01-05 17:50:00,48.4,47.0,30.42,WSW,239,3.0,7.0,95,0.00,CLR,,0.17,0.0,WeatherDisplay:10.37,2013-01-05 17:50:00,
2013-01-05 18:00:00,48.1,46.7,30.42,WSW,239,2.0,5.0,95,0.00,CLR,,0.17,0.0,WeatherDisplay:10.37,2013-01-05 18:00:00,
2013-01-05 18:10:00,47.8,46.4,30.43,WSW,239,2.0,5.0,95,0.00,CLR,,0.17,0.0,WeatherDisplay:10.37,2013-01-05 18:10:00,
2013-01-05 18:15:00,47.7,46.4,30.42,WSW,239,1.0,3.0,95,0.00,CLR,,0.17,0.0,WeatherDisplay:10.37,2013-01-05 18:15:00,
2013-01-05 18:20:00,47.8,46.4,30.42,WSW,239,2.0,3.0,95,0.00,CLR,,0.17,0.0,WeatherDisplay:10.37,2013-01-05 18:20:00,
2013-01-05 18:30:00,48.2,47.1,30.42,WSW,237,2.0,7.0,96,0.00,CLR,,0.17,0.0,WeatherDisplay:10.37,2013-01-05 18:30:00,
2013-01-05 18:40:00,47.8,46.5,30.41,SW,236,2.0,4.0,95,0.00,CLR,,0.17,0.0,WeatherDisplay:10.37,2013-01-05 18:40:00,
2013-01-05 18:45:00,47.5,46.1,30.41,SW,236,3.0,6.0,95,0.00,CLR,,0.17,0.0,WeatherDisplay:10.37,2013-01-05 18:45:00,
2013-01-05 18:50:00,47.5,46.4,30.41,SW,236,3.0,6.0,96,0.00,CLR,,0.17,0.0,WeatherDisplay:10.37,2013-01-05 18:50:00,
2013-01-05 19:00:00,47.6,46.5,30.42,SW,235,3.0,6.0,96,0.00,CLR,,0.17,0.0,WeatherDisplay:10.37,2013-01-05 19:00:00,
2013-01-05 19:10:00,47.3,45.9,30.42,SW,235,2.0,4.0,95,0.00,CLR,,0.17,0.0,WeatherDisplay:10.37,2013-01-05 19:10:00,
2013-01-05 19:15:00,47.1,45.7,30.42,SW,235,0.0,3.0,95,0.00,CLR,,0.17,0.0,WeatherDisplay:10.37,2013-01-05 19:15:00,
2013-01-05 19:20:00,46.8,45.5,30.41,SW,235,0.0,0.0,95,0.00,CLR,,0.17,0.0,WeatherDisplay:10.37,2013-01-05 19:20:00,
2013-01-05 19:30:00,46.3,45.0,30.40,SW,235,0.0,0.0,95,0.00,CLR,,0.17,0.0,WeatherDisplay:10.37,2013-01-05 19:30:00,
2013-01-05 19:40:00,45.8,44.5,30.38,SW,235,0.0,2.0,95,0.00,CLR,,0.17,0.0,WeatherDisplay:10.37,2013-01-05 19:40:00,
2013-01-05 19:55:00,45.5,44.1,30.38,SW,235,2.0,3.0,95,0.00,CLR,,0.17,0.0,WeatherDisplay:10.37,2013-01-05 19:55:00,
2013-01-05 20:00:00,45.3,44.2,30.38,SW,235,1.0,2.0,96,0.00,CLR,,0.17,0.0,WeatherDisplay:10.37,2013-01-05 20:00:00,
2013-01-05 20:10:00,45.3,44.2,30.38,SW,235,1.0,3.0,96,0.00,CLR,,0.17,0.0,WeatherDisplay:10.37,2013-01-05 20:10:00,
2013-01-05 20:15:00,45.1,43.8,30.38,SW,235,2.0,3.0,95,0.00,CLR,,0.17,0.0,WeatherDisplay:10.37,2013-01-05 20:15:00,
2013-01-05 20:20:00,45.1,44.0,30.38,SW,235,0.0,2.0,96,0.00,CLR,,0.17,0.0,WeatherDisplay:10.37,2013-01-05 20:20:00,
2013-01-05 20:25:00,45.0,43.9,30.39,SW,235,2.0,3.0,96,0.00,CLR,,0.17,0.0,WeatherDisplay:10.37,2013-01-05 20:25:00,
2013-01-05 20:30:00,45.1,44.0,30.38,SW,235,1.0,3.0,96,0.00,CLR,,0.17,0.0,WeatherDisplay:10.37,2013-01-05 20:30:00,
2013-01-05 20:40:00,45.2,44.1,30.36,SW,235,0.0,0.0,96,0.00,CLR,,0.17,0.0,WeatherDisplay:10.37,2013-01-05 20:40:00,
2013-01-05 20:45:00,45.1,44.0,30.36,SW,235,0.0,0.0,96,0.00,CLR,,0.17,0.0,WeatherDisplay:10.37,2013-01-05 20:45:00,
2013-01-05 20:50:00,45.0,43.9,30.38,SW,235,2.0,3.0,96,0.00,CLR,,0.17,0.0,WeatherDisplay:10.37,2013-01-05 20:50:00,
2013-01-05 21:01:00,44.7,43.6,30.39,SW,235,2.0,3.0,96,0.00,CLR,,0.17,0.0,WeatherDisplay:10.37,2013-01-05 21:01:00,
2013-01-05 21:10:00,45.1,44.3,30.40,SW,235,2.0,5.0,97,0.00,CLR,,0.17,0.0,WeatherDisplay:10.37,2013-01-05 21:10:00,
2013-01-05 21:15:00,45.2,44.4,30.40,SW,235,2.0,6.0,97,0.00,CLR,,0.17,0.0,WeatherDisplay:10.37,2013-01-05 21:15:00,
2013-01-05 21:20:00,45.5,44.7,30.41,SW,235,3.0,5.0,97,0.00,CLR,,0.17,0.0,WeatherDisplay:10.37,2013-01-05 21:20:00,
2013-01-05 21:31:00,45.8,45.0,30.41,SW,235,3.0,6.0,97,0.00,CLR,,0.17,0.0,WeatherDisplay:10.37,2013-01-05 21:31:00,
2013-01-05 21:40:00,45.8,45.0,30.41,SW,235,2.0,3.0,97,0.00,CLR,,0.17,0.0,WeatherDisplay:10.37,2013-01-05 21:40:00,
2013-01-05 21:45:00,45.7,44.6,30.41,SW,235,2.0,4.0,96,0.00,CLR,,0.17,0.0,WeatherDisplay:10.37,2013-01-05 21:45:00,
2013-01-05 21:50:00,45.6,44.5,30.40,SW,235,2.0,4.0,96,0.00,CLR,,0.17,0.0,WeatherDisplay:10.37,2013-01-05 21:50:00,
2013-01-05 22:01:00,45.4,44.3,30.40,SW,235,1.0,3.0,96,0.00,CLR,,0.17,0.0,WeatherDisplay:10.37,2013-01-05 22:01:00,
2013-01-05 22:11:00,45.1,44.0,30.39,SW,235,0.0,3.0,96,0.00,CLR,,0.17,0.0,WeatherDisplay:10.37,2013-01-05 22:11:00,
2013-01-05 22:16:00,44.8,43.7,30.39,SW,235,2.0,5.0,96,0.00,CLR,,0.17,0.0,WeatherDisplay:10.37,2013-01-05 22:16:00,
2013-01-05 22:21:00,44.8,43.7,30.39,SW,235,3.0,5.0,96,0.00,CLR,,0.17,0.0,WeatherDisplay:10.37,2013-01-05 22:21:00,
2013-01-05 22:26:00,44.8,43.7,30.38,SW,235,3.0,6.0,96,0.00,CLR,,0.17,0.0,WeatherDisplay:10.37,2013-01-05 22:26:00,
2013-01-05 22:31:00,44.9,44.1,30.39,SW,235,3.0,6.0,97,0.00,CLR,,0.17,0.0,WeatherDisplay:10.37,2013-01-05 22:31:00,
2013-01-05 22:41:00,45.0,44.2,30.40,SW,225,6.0,8.0,97,0.00,CLR,,0.17,0.0,WeatherDisplay:10.37,2013-01-05 22:41:00,
2013-01-05 22:46:00,44.9,44.1,30.40,SW,214,5.0,8.0,97,0.00,CLR,,0.17,0.0,WeatherDisplay:10.37,2013-01-05 22:46:00,
2013-01-05 22:51:00,45.1,44.3,30.41,SSW,204,6.0,8.0,97,0.00,CLR,,0.17,0.0,WeatherDisplay:10.37,2013-01-05 22:51:00,
2013-01-05 23:01:00,45.0,44.2,30.41,SSW,195,3.0,6.0,97,0.00,CLR,,0.17,0.0,WeatherDisplay:10.37,2013-01-05 23:01:00,
2013-01-05 23:11:00,44.7,43.6,30.43,SSW,195,5.0,6.0,96,0.00,CLR,,0.17,0.0,WeatherDisplay:10.37,2013-01-05 23:11:00,
2013-01-05 23:16:00,44.8,44.0,30.43,SSW,195,5.0,7.0,97,0.00,CLR,,0.17,0.0,WeatherDisplay:10.37,2013-01-05 23:16:00,
2013-01-05 23:21:00,45.0,44.2,30.43,SSW,195,5.0,8.0,97,0.00,CLR,,0.17,0.0,WeatherDisplay:10.37,2013-01-05 23:21:00,
2013-01-05 23:26:00,45.4,44.6,30.43,SSW,192,7.0,10.0,97,0.00,CLR,,0.17,0.0,WeatherDisplay:10.37,2013-01-05 23:26:00,
2013-01-05 23:31:00,45.8,45.0,30.42,South,184,7.0,12.0,97,0.00,CLR,,0.17,0.0,WeatherDisplay:10.37,2013-01-05 23:31:00,
2013-01-05 23:41:00,46.4,45.6,30.42,South,177,6.0,10.0,97,0.00,CLR,,0.17,0.0,WeatherDisplay:10.37,2013-01-05 23:41:00,
2013-01-05 23:46:00,46.4,45.6,30.42,South,176,3.0,7.0,97,0.00,CLR,,0.17,0.0,WeatherDisplay:10.37,2013-01-05 23:46:00,
2013-01-05 23:51:00,46.3,45.5,30.41,South,175,3.0,6.0,97,0.00,CLR,,0.17,0.0,WeatherDisplay:10.37,2013-01-05 23:51:00,
2013-01-05 23:56:00,46.1,45.3,30.41,South,175,3.0,6.0,97,0.00,CLR,,0.17,0.0,WeatherDisplay:10.37,2013-01-05 23:56:00,